YAOGAN-31 H

Satellite information

Favourite Embed

Satellite Type and Status

PAYLOADIN ORBIT

Key statistics

Satellite YAOGAN-31 H at a glance.

Uptime

1708

Days in orbit

Revolutions

≈ 13.5

Per day

Orbit

LEO

Low Earth Orbit

Inclination

63.4

Latest

Satellite identification and parameters

Extended collection of information and parameters for YAOGAN-31 H.

Object identification

Identified? True

Debris? False

Object name: YAOGAN-31 H

International designator: 2021-014C

Object number (NORAD): 47693

Object ID (CCSDS): 47693

Country: PEOPLES REPUBLIC OF CHINA (PRC)

Current information (Y/N): Y

RCS size: LARGE

Orbital parameters

Period: 107.03 minutes

Inclination: 63.4015 deg

SMA: 7467.282 km

Apoapsis: 1205.943 km

Periapsis: 972.351 km

RAAN: 73.686 deg

Eccentricy: 0.01564101

Argument of periapsis: 0.1046 deg

Mean anomaly: 359.9986 deg

Mean motion: 13.45423266 rev/day

Mean motion (dot): -0.0000004 rev/day2

B* drag term: 0.000078962445 1/REarth

Two-line elements (TLE)

Creation date: Oct. 28, 2025, 7:11 p.m.

Reference frame: TEME

Reference center: EARTH

Epoch: Oct. 28, 2025, 3:25 p.m. UTC

TLE line 0: 0 YAOGAN-31 H

TLE line 1: 1 47693U 21014C 25301.64297876 -.00000040 00000-0 78962-4 0 9998

TLE line 2: 2 47693 63.4015 73.6860 0156410 0.1046 359.9986 13.45423266229523

Live tracking on map

Real-time ground track for satellite YAOGAN-31 H.

In-orbit conjunctions

There are no conjunctions computed for YAOGAN-31 H, at the moment. Check back to stay up to date, as we update our databases every day.

Go to all conjunctions

Associated space launch

YAOGAN-31 H was lifted into orbit during the mission ‘Long March 4C | Yaogan-31-03’, on board a Long March 4C space rocket.

The launch took place on Feb. 24, 2021, 2:22 a.m. from Launch Area 4 (SLS-2 / 603).

For more information about the launch, click the button.

Launch to space Long March 4C | Yaogan-31-03
Long March 4C | Yaogan-31-03

Agency: N/A

Status: Launch Successful

Launch date: Feb. 24, 2021, 2:22 a.m. UTC

Rocket: Long March 4C

Launch pad: Launch Area 4 (SLS-2 / 603)

Location: Jiuquan Satellite Launch Center, People's Republic of China

...

Latest news about this satellite

News about space launch
Long March 4C launches latest batch of Yaogan- 31 satellites

Three new satellites were launched from the Jiuquan Satellite Launch Center on Wednesday. The new satellites form part of the Group-3 of the Yaogan Weixing-31 mission. The launch took place at 02:22 UTC from Launch Pad 94 of the LC43 launch complex using ...

News about space launch
Another trio of Chinese military satellites successfully deployed

Weeks after the launch of an earlier trio of Chinese military satellites, another trio of spacecraft successfully took off Feb. 24 aboard a Long March 4C rocket on a clandestine mission that analysts believe may involve spying on foreign naval forces.

News about space launch
China launches trio of Yaogan-31 ocean reconnaissance satellites

A Long March 4C rocket sent a latest series of three Yaogan-31 reconnaissance satellites into orbit late Tuesday.


Newsletter sign-up

Weekly statistics, charts and insights to help you stay on top of the space industry.